Красноармейск

Kazakhstan     53˚49′58″N   69˚45′00″E
temp.,
°C
wind,
m/s
gust,
m/s
humid.,
%
clouds,
%
prec.,
mm/h
press.,
hPa
HPBL,
m
27 november, fri
fri2723:00−12˚se238893 0.0 103425
02:00−13˚se238697 0.0 103323
05:00−13˚ese238785 0.0 103227
08:00−13˚ese348893 0.0 103261
11:00−11˚ese358797 0.0 1032144
14:00−9˚ese3587100 0.0 1031167
17:00−10˚ese4595100 0.1 1031123
20:00−11˚ese349680 0.0 103161
28 november, sat
sat2823:00−11˚ese239578 0.1 103232
02:00−13˚e339671 0.0 103139
05:00−13˚ene359573 0.0 1032105
08:00−13˚ene3594100 0.0 1032136
11:00−13˚ene3591100 0.0 1033209
14:00−12˚ne3592100 0.0 1034244
17:00−13˚n3595100 0.0 1036168
20:00−13˚n3595100 0.0 1037244
29 november, sun
sun2923:00−14˚nnw3596100 0.0 1039134
02:00−14˚nnw3696100 0.0 1040157
05:00−14˚nnw4696100 0.0 1043197
08:00−16˚nw469793 0.0 1044106
11:00−14˚nw469591 0.1 1046247
14:00−14˚nw4695100 0.0 1046280
17:00−16˚nw479799 0.1 1048153
20:00−17˚nw339795 0.0 104970
30 november, mon
mon3023:00−18˚nw339889 0.0 105040
02:00−19˚nw339867 0.0 105047
05:00−19˚nw239862 0.0 105131
08:00−20˚nw229856 0.0 105120
11:00−18˚wnw129547 0.0 105275
14:00−17˚nw129516 0.0 105263
17:00−19˚nw11977 0.0 105220
20:00−20˚nw11980 0.0 105320
1 december, tue
tue123:00−20˚wsw00970 0.0 105320
02:00−20˚wsw11960 0.0 105320
05:00−19˚wsw11940 0.0 105320
08:00−19˚nnw01930 0.0 105420
11:00−16˚sw11900 0.0 105420
14:00−15˚wsw11870 0.0 105320
17:00−17˚w01850 0.0 105320
20:00−17˚w00840 0.0 105320